Location: Bossey
(46.1499°N, 6.1594°E)
Time: 16:01:10
(UTC+00:00)

Daily predictions for brighter satellites

Satellite Brightness Start Highest point End
(mag) Time Altitude Azimuth Time Altitude Azimuth Time Altitude Azimuth
NOSS 3-2 (A) 4.5 18:10:10 10° NNW 18:17:08 46° NE 18:25:13 10° ESE
BREEZE-M DEB (TANK) 3.7 18:20:04 10° WSW 18:23:17 80° NNW 18:33:26 10° ENE
BREEZE-M DEB (TANK) 4.4 18:10:46 10° W 18:23:53 61° NNW 18:28:35 10° ENE
Cosmos 1371 Rocket 4.1 18:18:58 10° S 18:24:07 57° ESE 18:29:16 10° NNE
Cosmos 1818 3.8 18:19:44 10° NNW 18:25:06 54° NE 18:30:26 10° SE
USA 281 3.3 18:19:55 10° NNE 18:26:33 87° ESE 18:33:07 10° SSW
PAYLOAD B 4.4 18:22:49 10° SSE 18:28:21 80° WSW 18:33:57 10° NNW
Cosmos 1727 Rocket 4.0 18:22:14 10° S 18:28:31 74° E 18:34:47 10° NNE
Cosmos 1626 2.2 18:25:22 10° N 18:28:50 48° ENE 18:32:17 10° SSE
CENTAUR R/B 3.5 18:22:57 10° NW 18:30:53 57° NE 18:39:44 10° ESE
USA 306 3.6 18:27:22 10° WNW 18:30:58 44° SW 18:34:33 10° SSE
MINOTAUR 4 R/B 4.2 18:29:05 10° NNE 18:32:24 46° E 18:35:41 10° S
COSMO-SKYMED 1 4.4 18:28:28 10° N 18:32:29 37° WNW 18:36:28 10° SW
Cosmos 2056 Rocket 3.4 18:27:36 10° S 18:32:39 63° ESE 18:37:42 10° NNE
Cosmos 1263 4.4 18:29:57 10° S 18:33:36 62° E 18:36:42 10° NNE
SL-8 R/B 3.9 18:32:28 10° WNW 18:37:13 68° SSW 18:41:52 11° ESE
Okean 3 3.4 18:39:04 10° N 18:43:17 69° E 18:47:29 10° SSE
Okean 1-7 3.0 18:40:04 10° N 18:44:27 71° E 18:48:47 10° SSE
Cosmos 1933 Rocket 3.5 18:41:04 10° S 18:45:19 60° E 18:49:37 10° NNE
Cosmos 1624 Rocket 4.0 18:40:45 10° SSW 18:46:02 82° ESE 18:51:24 10° NNE
Cosmos 2098 Rocket 4.1 18:42:22 10° SSE 18:47:15 44° E 18:53:09 10° NNE
Iridium 4 Rocket 3.8 18:43:46 10° NNE 18:47:28 30° E 18:51:09 10° SE
CSL-04 Rocket 4.0 18:43:27 10° SE 18:48:44 47° ENE 18:54:02 10° N
SPOT 1/Viking Rocket 4.4 18:46:57 12° ESE 18:50:56 30° ENE 18:55:24 10° N
Cosmos 2322 Rocket 4.3 18:46:37 10° NW 18:51:25 29° WSW 18:56:12 10° SSW
In-Cosmos 22 4.3 18:45:49 10° N 18:51:30 90° SE 18:57:15 10° S
Exosat Rocket 3.7 18:46:33 10° SSW 18:51:37 78° ESE 18:58:01 10° NNE
Landsat 7 3.9 18:48:07 10° SSE 18:52:41 53° ENE 18:57:18 10° N
Cosmos 1420 Rocket 4.0 18:48:00 10° SSW 18:53:14 88° ESE 18:58:29 10° NNE
KORONAS-FOTON 3.7 18:49:46 10° N 18:53:36 86° E 18:57:25 10° S
Cosmos 1842 4.4 18:50:02 10° NNW 18:53:42 45° W 18:57:19 10° SSW
CZ-3 Stage 3 4.3 18:52:51 10° S 18:53:59 11° SSE 18:55:08 10° SE
Cosmos 2237 Rocket 3.2 18:49:11 10° N 18:54:04 29° NE 18:57:25 17° E
GEOS 3 Rocket 4.0 18:49:25 10° NE 18:54:48 73° NW 19:00:10 10° SW
Cosmos 1869 Rocket 4.0 18:50:50 10° SSE 18:54:49 38° E 18:58:51 10° NNE
Meteor 1-21 4.2 18:51:03 10° N 18:56:41 75° ENE 19:02:19 10° SSE
Cosmos 1459 Rocket 3.9 18:50:50 10° N 18:56:55 81° E 19:03:00 10° S
CZ-4C R/B 4.4 18:53:50 10° NNW 18:58:36 21° NNE 19:04:05 10° ENE
USA 305 3.9 18:56:58 10° WNW 19:00:28 35° SW 19:03:56 10° SSE
Cosmos 1725 Rocket 4.0 18:58:15 10° N 19:04:22 59° ENE 19:10:26 10° SSE
USA 307 4.1 19:01:12 10° WNW 19:04:36 31° SW 19:07:59 10° SSE
Resurs 01 Rocket 2.5 19:03:03 20° ESE 19:05:05 29° ENE 19:08:55 10° N
CZ-4B R/B 4.0 19:01:04 10° S 19:06:36 55° WSW 19:12:10 10° NNW
Lacrosse 5 rocket 2.8 19:04:55 10° S 19:07:26 19° SE 19:07:26 19° SE
Cosmos 2322 3.8 19:03:02 10° NNW 19:08:43 80° WSW 19:14:22 10° SSE
Cosmos 1975 2.7 19:05:15 10° S 19:09:11 86° E 19:13:11 10° N
Landsat 5 4.2 19:06:26 10° NE 19:09:47 27° E 19:10:35 25° ESE
Cosmos 1452 Rocket 3.8 19:05:27 10° S 19:10:24 43° ESE 19:15:22 10° NE
SJ-6B 2.8 19:07:15 10° S 19:11:12 82° WSW 19:15:06 10° NNW
Cosmos 1707 3.7 19:07:55 10° NNW 19:11:36 48° W 19:15:14 10° SSW
Cosmos 676 Rocket 4.2 19:06:42 10° NNW 19:11:55 72° WSW 19:17:07 10° SSE
Cosmos 1805 3.4 19:09:21 10° SSE 19:12:58 44° E 19:16:38 10° NNE
Cosmos 1980 4.2 19:09:59 10° NNW 19:15:22 41° NE 19:18:13 25° ESE
Cosmos 2333 Rocket 3.7 19:10:52 10° NW 19:16:09 38° WSW 19:21:24 10° S
USA 215 4.3 19:10:10 10° NE 19:16:14 42° NNW 19:22:18 10° W
Cosmos 2219 Rocket 2.9 19:12:53 10° NW 19:18:26 53° WSW 19:23:55 10° S
Cosmos 1802 Rocket 4.0 19:12:35 10° N 19:18:52 88° W 19:25:13 10° S
ISS -2.3 19:16:42 10° WNW 19:19:47 33° N 19:21:37 19° NE
SL-27 R/B 3.5 19:17:02 10° SW 19:20:12 44° WNW 19:23:22 10° N
IRS-1C Rocket 4.2 19:16:25 18° SE 19:20:13 55° ENE 19:25:23 10° N
IGS 5A 4.5 19:16:36 10° S 19:20:34 46° W 19:24:34 10° NNW
Cosmos 1703 Rocket 4.2 19:16:36 10° NNW 19:21:00 57° W 19:25:19 10° S
Cosmos 1674 3.8 19:19:09 10° NNW 19:22:42 43° W 19:26:14 10° SSW
CSL-04 Debris 4.2 19:18:51 10° SSE 19:24:15 83° WSW 19:29:44 10° NNW
Resurs 1-3 3.6 19:20:55 10° SSE 19:25:17 83° WSW 19:29:42 10° NNW
EXPRESS MD2 4.2 19:24:30 10° W 19:26:05 17° SW 19:26:19 17° SSW
Cosmos 1741 Rocket 4.0 19:21:41 10° NNW 19:26:53 60° ENE 19:29:30 28° SE
SL-14 R/B 3.2 19:23:28 10° N 19:27:16 60° ENE 19:28:35 36° SE
COSMOS 2428 2.9 19:21:46 10° NNW 19:27:30 75° WSW 19:32:32 14° SSE
USA 186 2.6 19:26:43 12° S 19:29:26 48° W 19:32:28 10° NNW
BREEZE M DEB (TANK) 2.7 19:29:24 10° W 19:31:44 40° N 19:31:58 38° NNE
Okean-O 2.5 19:29:27 20° SSE 19:32:33 85° ENE 19:37:00 10° NNW
Cosmos 2016 Rocket 4.0 19:28:49 10° N 19:34:56 80° W 19:41:03 10° S
Cosmos 2297 Rocket 2.5 19:29:55 10° S 19:35:11 42° ESE 19:40:28 10° NE
Cosmos 968 Rocket 4.2 19:31:42 10° N 19:36:24 33° ENE 19:37:18 31° E
Cosmos 2123 Rocket 4.1 19:30:31 10° S 19:36:49 81° W 19:43:11 10° N
MOS 1 4.5 19:35:16 30° SE 19:37:49 53° ENE 19:43:21 10° N
Cosmos 1733 Rocket 3.6 19:38:38 37° ENE 19:38:38 37° ENE 19:42:04 10° NNE
Cosmos 1726 1.8 19:35:28 12° S 19:38:40 88° W 19:42:11 10° N
CZ-4 R/B 3.8 19:36:09 10° SW 19:39:09 22° W 19:42:11 10° NW
Okean O Rocket 3.6 19:38:59 10° SSW 19:42:48 28° W 19:46:38 10° NW
CARTOSAT-1 3.9 19:43:22 43° ENE 19:43:31 43° ENE 19:47:36 10° N
Cosmos 2221 Rocket 4.2 19:39:29 10° N 19:43:19 36° ENE 19:43:19 36° ENE
NOSS 0 Rocket 3.9 19:38:45 10° NNW 19:44:59 85° WSW 19:48:33 27° SSE
ERS-1 Rocket 4.5 19:45:24 21° NE 19:45:24 21° NE 19:48:44 10° NNE
Cosmos 2242 Rocket 4.3 19:41:34 10° NNW 19:46:04 56° W 19:50:25 10° S
Ariane Rocket 3.7 19:47:24 34° ENE 19:47:39 34° ENE 19:52:11 10° N
Cosmos 1378 Rocket 4.4 19:44:48 10° N 19:48:15 34° NE 19:48:15 34° NE
Cosmos 1447 Rocket 4.5 19:45:26 16° SSE 19:50:19 59° E 19:56:22 10° NNE
Cosmos 2227 Rocket 3.7 19:53:55 20° NE 19:53:55 20° NE 19:55:56 10° NE
IRS-P2 Rocket 4.5 19:50:29 38° SSE 19:52:31 76° ENE 19:57:45 10° NNW
Cosmos 1733 4.2 19:49:14 10° SSW 19:52:51 45° WNW 19:56:30 10° N
Cosmos 1867 3.4 19:49:56 10° SSW 19:55:22 79° ESE 20:00:50 10° NE
Okean 2 4.2 19:56:25 10° NNW 20:00:20 48° W 20:02:24 25° SSW
SL-16 R/B 3.1 19:57:44 10° NNW 20:02:50 32° NE 20:03:15 32° ENE
SPOT 3 Rocket 4.3 20:03:14 35° ENE 20:03:14 35° ENE 20:07:39 10° N
H-2A R/B 3.3 20:18:42 44° NNE 20:18:42 44° NNE 20:22:00 10° N
NOSS 3-2 (C) 4.1 20:10:48 10° NW 20:18:21 82° SW 20:21:41 42° SSE
CENTAUR R/B 3.9 20:13:48 10° NW 20:21:47 49° WSW 20:27:30 22° S
Cosmos 1513 Rocket 4.4 20:16:14 10° N 20:22:16 62° ENE 20:22:34 62° E
SJ 16-02 3.5 20:21:17 10° N 20:22:49 16° NNE 20:22:49 16° NNE
Meteor 1-15 Rocket 4.2 20:31:01 68° ENE 20:31:01 68° ENE 20:36:25 10° NNE
USA 238 DEB 3.9 20:24:27 10° NW 20:31:49 83° SW 20:33:45 55° SSE
USA 238 3.9 20:24:33 10° NW 20:31:56 83° SW 20:33:50 56° SSE
Meteor 2-15 4.3 20:28:53 10° N 20:35:00 71° ENE 20:35:00 71° ENE
Meteor 2-8 Rocket 4.4 20:30:17 10° N 20:36:09 65° ENE 20:36:09 65° ENE
Cosmos 2237 Rocket 2.7 20:32:56 10° NW 20:38:26 53° WSW 20:39:15 48° SW
Terra 3.2 20:40:22 30° NNE 20:40:22 30° NNE 20:43:02 10° N
Meteor 1-12 Rocket 4.2 20:39:36 82° NE 20:39:36 82° NE 20:45:08 10° NNE
Resurs 01 Rocket 3.2 20:40:34 28° WSW 20:41:30 30° W 20:45:26 10° NNW
Cosmos 2034 Rocket 4.4 20:36:10 10° N 20:41:13 47° NE 20:41:13 47° NE
Lacrosse 5 rocket 3.9 20:42:16 10° WSW 20:42:54 14° WSW 20:42:54 14° WSW
ATLAS CENTAUR R/B 4.4 20:32:45 10° WSW 20:48:17 69° NW 20:54:48 14° NE
CZ-4C R/B 3.4 20:42:05 10° NNW 20:48:49 48° NE 20:49:46 45° ENE
MetOp-B 4.5 20:50:59 60° WSW 20:50:59 60° WSW 20:56:18 10° NNW
SPOT 5 3.8 20:53:49 42° NNW 20:53:49 42° NNW 20:57:00 10° NNW
Meteor 1-24 Rocket 3.9 20:51:09 10° N 20:56:26 72° NNW 20:56:26 72° NNW
ISS -0.5 20:53:58 10° WNW 20:54:34 14° NW 20:54:34 14° NW
Cosmos 1072 Rocket 4.5 20:51:29 10° N 20:57:55 81° W 20:57:57 81° WSW
USA 215 4.5 20:55:21 23° NE 20:58:21 35° N 21:04:08 10° WNW
FALCON 9 R/B 3.9 20:43:45 10° W 20:58:37 37° SSW 20:58:48 37° SSW
ADEOS Rocket 3.2 21:05:22 74° NNE 21:05:22 74° NNE 21:11:45 10° NNW
Cosmos 2297 Rocket 3.6 21:14:10 10° WSW 21:19:18 35° NW 21:24:29 10° NNE
Meteor 2-5 Rocket 4.5 21:14:39 10° NNW 21:19:35 51° WNW 21:19:35 51° WNW
ERS-1 Rocket 4.4 21:25:22 35° NW 21:25:22 35° NW 21:28:25 10° NNW
Cosmos 2227 Rocket 3.4 21:35:33 39° NW 21:35:33 39° NW 21:40:11 10° NNE
SL-16 R/B 3.6 21:41:42 10° NW 21:45:08 33° WNW 21:45:08 33° WNW
SJ 16-02 4.3 21:59:08 10° NNW 21:59:43 13° NW 21:59:43 13° NW
ATLAS 3B R/B 3.9 21:56:59 10° NNW 22:03:35 38° NNE 22:03:35 38° NNE
CZ-4C R/B 4.0 22:30:29 10° NW 22:34:56 39° WNW 22:34:56 39° WNW
USA 215 4.4 22:42:40 38° NNW 22:42:40 38° NNW 22:46:51 10° NW
ATLAS 2AS CENTAUR R/B 4.4 23:13:02 28° NE 23:13:02 28° NE 23:16:08 10° NE
Cosmos 2344 4.4 23:22:26 10° NW 23:28:51 58° NW 23:28:51 58° NW
